Date,TemperatureHighF,TemperatureAvgF,TemperatureLowF,DewpointHighF,DewpointAvgF,DewpointLowF,HumidityHigh,HumidityAvg,HumidityLow,PressureMaxIn,PressureMinIn,WindSpeedMaxMPH,WindSpeedAvgMPH,GustSpeedMaxMPH,PrecipitationSumIn
2013-2-4,29.4,26.8,24.2,15.1,12.6,11.0,66,55,48,29.87,29.78,10,7,15,0.00
2013-2-5,30.0,27.9,24.6,28.0,23.7,13.2,92,84,62,29.89,29.80,7,2,7,0.00
2013-2-6,36.6,32.2,28.7,28.8,24.7,6.7,92,75,37,30.23,29.80,23,7,24,0.01
2013-2-7,31.2,27.8,25.5,22.7,12.9,5.3,74,54,36,30.41,30.23,19,7,21,0.01
2013-2-8,35.2,31.9,24.2,31.6,29.2,21.9,96,90,72,30.27,29.38,10,4,18,0.00
2013-2-9,28.2,25.1,22.3,25.1,18.5,9.6,95,78,48,30.14,29.47,22,7,24,0.00
2013-2-10,32.1,24.2,20.9,17.6,12.0,7.2,78,60,40,30.36,30.14,21,8,23,0.00
2013-2-11,45.1,37.7,23.8,44.0,35.8,17.6,97,93,79,30.25,29.55,17,6,22,1.28
2013-2-12,41.8,38.3,35.1,40.8,31.6,27.6,97,77,63,29.84,29.56,11,8,17,0.01
2013-2-13,36.6,34.2,28.8,31.1,27.3,22.7,87,76,58,29.82,29.57,10,3,13,0.00
2013-2-14,39.2,34.3,31.9,32.6,28.7,23.6,95,81,54,29.91,29.59,13,6,13,0.05
2013-2-15,45.7,38.3,31.7,38.0,34.8,30.2,96,87,72,29.92,29.81,13,7,14,0.01
2013-2-16,40.1,34.1,29.8,37.0,29.3,24.4,94,83,64,29.83,29.56,21,12,25,0.01
2013-2-17,29.8,25.6,18.2,25.4,13.6,7.0,85,61,44,29.76,29.43,30,21,40,0.00
2013-2-18,32.1,24.3,18.0,16.0,11.2,7.3,67,57,46,30.11,29.76,9,5,17,0.00
2013-2-19,46.6,38.2,26.4,44.0,32.6,13.5,95,81,58,30.11,29.53,14,7,21,0.34
2013-2-20,37.6,31.0,25.7,34.9,20.8,14.2,90,66,51,29.81,29.54,16,10,22,0.00
2013-2-21,32.5,27.5,24.8,21.3,17.4,14.8,74,66,56,30.11,29.80,30,16,32,0.00
2013-2-22,37.0,31.1,26.5,28.5,24.2,19.2,80,75,67,30.29,30.11,24,7,25,0.00
2013-2-23,39.9,36.4,33.7,37.6,33.7,27.9,96,90,79,30.18,29.69,5,3,13,0.19
2013-2-24,37.4,35.3,32.7,35.6,33.4,29.4,96,93,78,29.81,29.59,22,11,24,0.02
2013-2-25,43.7,36.5,33.0,32.0,29.0,26.5,86,75,53,30.13,29.81,16,6,20,0.00
2013-2-26,42.4,37.7,35.6,35.7,32.8,29.7,94,83,69,30.21,29.89,4,1,6,0.12
2013-2-27,46.4,41.9,36.4,45.0,40.6,34.4,97,95,87,29.89,29.41,10,5,16,2.18
2013-2-28,44.8,40.1,36.9,41.5,37.3,34.7,94,90,80,29.52,29.43,8,3,12,0.09